Location: Albany
(35.0170°S, 117.8920°E)
Time: 21:48:42
(UTC+08:00)

A-11 Canister half - Pass Details

Date: 26 January 2021
Orbit: 1525 x 1684 km, 47.3° (Epoch: 03 March)

Event Time Altitude Azimuth Distance (km) Brightness Sun altitude
Rises 00:53:17 0° 325° (NW) 4,920 - -35.7°
Reaches altitude 10° 00:56:30 10° 328° (NNW) 3,941 - -35.5°
Maximum altitude 01:06:23 59° 44° (NE) 1,903 - -35.1°
Exits shadow 01:06:50 58° 54° (NE) 1,909 9.2 -35.1°
Drops below altitude 10° 01:16:11 10° 120° (ESE) 3,915 11.6 -34.6°
Sets 01:19:22 0° 123° (ESE) 4,887 12.3 -34.4°
